Вернуться в каталог

NOAA 17 DEB

АктивенPO
NORAD 48755·DEBRIS·🇺🇸 United States

Запущен Jun 24, 2002 с Vandenberg Space Force Base

Loading…

Ближайшие Пролёты (ближайшие 24 часа)

TLE

СвежийSource: Space-Track

Эпоха: Sep 12, 2026, 02:23 UTC

1 48755U 02032CQ  26255.09956545  .00032538  00000-0  20976-2 0  9996
2 48755  98.6910 312.4900 0007311 355.2316   4.8838 15.08221104289992

Отслеживайте NOAA 17 DEB в реальном времени с AllMySat

Download on the App Store